[[{"header":{"parameterUnit":"m.s-1","parameterCategory":2,"la1":30.2991,"la2":30.254,"lo1":-89.0895,"lo2":-89.0444,"dy":0.0017,"dx":0.0017,"nx":28,"ny":28,"refTime":"2025-02-05T09:00:00:Z","depth":"0","parameterNumber":2,"parameterNumberName":"U-component_of_CURRENTS"},"data":[0,0,0,0,0,0,0,0,0,0,0,0,0,0,0,0,0,0,0,0,0,0,0,0,0,0,0,0,0,0,0,0,0,0,0,0,0,0,0,0,0,0,0,0,0,0,0,0,0,0,0,0,0,0,0,0,0,0,0.2868,0.2867,0,0.286,0.286,0.286,0.2845,0.2845,0.2844,0.2844,0.286,0.2861,0.2862,0,0,0,0,0,0,0,0,0,0,0,0,0,0.2868,0.2869,0.2868,0.2867,0.2867,0.286,0.286,0.286,0.2845,0.2845,0.2844,0.2844,0.286,0.2861,0.2862,0,0,0,0,0,0,0,0,0,0,0,0,0,0.2867,0.2869,0.2868,0.2857,0.2856,0.286,0.286,0.286,0.2846,0.2845,0.2844,0.2843,0.286,0.2861,0.2862,0.2884,0,0,0.2866,0.2867,0,0,0,0,0,0,0,0,0.2867,0.2867,0.2859,0.2858,0.2857,0.2851,0.2866,0.2869,0.2846,0.2852,0.2844,0.2843,0.2859,0.286,0.2863,0.2885,0.2886,0.2866,0.2867,0.2868,0.2868,0,0,0,0,0,0,0,0.2867,0.2867,0.2866,0.2859,0.2858,0.2853,0.2852,0.2867,0.2861,0.2851,0.2849,0.2846,0.2859,0.2861,0.2863,0.2886,0.2866,0.2868,0.2868,0.2869,0.2931,0.2932,0,0,0,0,0,0,0.2865,0.2868,0.2867,0.2866,0.2858,0.2853,0.2853,0.2855,0.286,0.286,0.2847,0.2845,0.286,0.2861,0.2863,0.2957,0.2868,0.2869,0.287,0.293,0.2931,0.2932,0,0,0,0,0,0,0.2866,0.2866,0.2867,0.2865,0.2864,0.2854,0.2857,0.2855,0.2854,0.2856,0.2856,0.2845,0.2859,0.2862,0.2902,0.2954,0.287,0.2871,0.2929,0.2931,0.2932,0.31,0,0,0,0,0,0,0.2866,0.2866,0.2874,0.2865,0.2864,0.2893,0.2858,0.2856,0.2852,0.285,0.2856,0.2857,0.2859,0.29,0.2903,0.2955,0.2872,0.2928,0.293,0.2931,0.3093,0.3107,0.3119,0,0,0,0,0,0.2866,0.2886,0.2875,0.2875,0.2874,0.2895,0.2896,0.2886,0.2852,0.2876,0.2879,0.2856,0.2911,0.2903,0.2906,0.2959,0.2927,0.2929,0.2931,0.3088,0.3104,0.3118,0,0,0,0,0,0,0.2886,0.2885,0.2874,0.289,0.29,0.2892,0.2916,0.2885,0.2902,0.2903,0.2885,0.2889,0.2951,0.2914,0.2905,0.2973,0.2908,0.2911,0.3026,0.3041,0.3053,0.3085,0.2873,0,0,0,0,0,0.2894,0.2912,0.2908,0.2923,0.2938,0.2921,0.2925,0.2916,0.2922,0.2926,0.2929,0.2928,0.296,0.2967,0.2991,0.3027,0.3027,0.3051,0.3064,0.3075,0.3098,0.3152,0.3174,0.2939,0.2939,0.2939,0,0,0.2901,0.2906,0.2913,0.2929,0.2941,0.2982,0.2925,0.2947,0.2983,0.2928,0.299,0.299,0.2982,0.3047,0.3065,0.3022,0.3141,0.3077,0.3088,0.3105,0.3157,0.318,0.3201,0.294,0.294,0.294,0,0,0.2938,0.2942,0.2976,0.3001,0.3022,0.3027,0.3031,0.3036,0.305,0.3089,0.3077,0.3109,0.312,0.3154,0.3162,0.3245,0.322,0.3226,0.3311,0.3365,0.3386,0.3404,0.3445,0.3466,0.3216,0.3217,0.3217,0,0.2949,0.2985,0.2989,0.3039,0.3066,0.305,0.3098,0.3126,0.3138,0.3165,0.3128,0.3186,0.3183,0.3275,0.3307,0.3284,0.3296,0.3267,0.3388,0.3406,0.3422,0.3459,0.348,0.3225,0.3224,0.3223,0.3223,0,0.301,0.3051,0.3085,0.3145,0.3178,0.3222,0.3257,0.3294,0.3287,0.3302,0.3379,0.3382,0.3403,0.341,0.3389,0.35,0.3468,0.3419,0.3365,0.3457,0.3488,0.3507,0.3237,0.3234,0.3232,0.323,0,0,0.3013,0.3105,0.3118,0.3161,0.3236,0.3263,0.3357,0.3427,0.3471,0.3504,0.3565,0.363,0.3607,0.3613,0.3593,0.3638,0.3768,0.3579,0.3578,0.3647,0.3887,0.3721,0.3725,0.3744,0.3748,0.3751,0.3867,0,0.3062,0.3158,0.3193,0.3294,0.3356,0.3393,0.3473,0.3536,0.3574,0.3639,0.3674,0.3725,0.3692,0.3693,0.375,0.3758,0.3823,0.374,0.3761,0.3762,0.3627,0.3743,0.3524,0.3596,0.3885,0.3889,0.3891,0,0.3119,0.3174,0.3271,0.3369,0.3397,0.345,0.3555,0.3621,0.373,0.3755,0.3827,0.3839,0.3936,0.3864,0.398,0.3926,0.3934,0.3937,0.394,0.3742,0.3631,0.3544,0.3619,0.349,0.3919,0.3917,0.3915,0,0.3121,0.3233,0.3303,0.3342,0.345,0.3494,0.3547,0.3653,0.371,0.3828,0.3857,0.3975,0.4001,0.4064,0.4067,0.4035,0.417,0.4113,0.399,0.3978,0.3772,0.3733,0.3744,0.4221,0.422,0.422,0.422,0,0.3166,0.3223,0.3303,0.3345,0.3423,0.3495,0.3578,0.3649,0.3746,0.3818,0.3903,0.3959,0.4051,0.4118,0.4131,0.4115,0.4224,0.4043,0.401,0.3818,0.3784,0.3639,0.3606,0.4224,0.4223,0.4223,0.4222,0,0.3162,0.3222,0.3303,0.34,0.3429,0.348,0.3573,0.3629,0.3721,0.3812,0.3848,0.3977,0.4048,0.4118,0.4209,0.4158,0.4041,0.4145,0.3905,0.3839,0.3542,0.3526,0.3426,0.3342,0.4031,0.4028,0.4025,0,0.3159,0.321,0.3314,0.3348,0.3386,0.3461,0.3509,0.3611,0.3661,0.3805,0.3839,0.3948,0.3991,0.406,0.4008,0.4012,0.3932,0.3797,0.3687,0.3525,0.3486,0.3397,0.3329,0.35,0.3493,0.3488,0.3483,0,0.3155,0.3196,0.325,0.3324,0.3376,0.3432,0.3498,0.353,0.3645,0.3694,0.3768,0.3816,0.3859,0.3746,0.3728,0.3699,0.357,0.3676,0.3589,0.3145,0.2974,0.2872,0.343,0.3434,0.3439,0.3442,0.3445,0.3447,0.3126,0.3163,0.3234,0.3291,0.3342,0.3375,0.3367,0.3423,0.3461,0.3472,0.3612,0.3582,0.352,0.3435,0.3399,0.3118,0.3212,0.2971,0.2995,0.2944,0.2757,0.319,0.3086,0.3089,0.3091,0.3093,0.3095,0,0.3088,0.3138,0.3193,0.3244,0.3244,0.3301,0.333,0.3275,0.3238,0.3277,0.3276,0.3146,0.2978,0.2905,0.2628,0.2472,0.2405,0.2381,0.2237,0.2231,0.2678,0.2543,0.2216,0.2216,0.2216,0.2216,0.2216,0.2217,0.3073,0.311,0.3141,0.3126,0.3139,0.3067,0.3045,0.2972,0.2949,0.2779,0.2663,0.2664,0.2562,0.2318,0.2045,0.1992,0.1889,0.1739,0.1837,0.2156,0.2214,0.2268,0.2133,0.1725,0.1725,0.1257,0.1253,0.125]},{"header":{"parameterUnit":"m.s-1","parameterCategory":2,"la1":30.2991,"la2":30.254,"lo1":-89.0895,"lo2":-89.0444,"dy":0.0017,"dx":0.0017,"nx":28,"ny":28,"refTime":"2025-02-05T09:00:00:Z","depth":"0","parameterNumber":3,"parameterNumberName":"V-component_of_CURRENTS"},"data":[0,0,0,0,0,0,0,0,0,0,0,0,0,0,0,0,0,0,0,0,0,0,0,0,0,0,0,0,0,0,0,0,0,0,0,0,0,0,0,0,0,0,0,0,0,0,0,0,0,0,0,0,0,0,0,0,0,0,0.0281,0.0281,0,0.0271,0.0271,0.0271,0.0248,0.0247,0.0247,0.0246,0.023,0.023,0.023,0,0,0,0,0,0,0,0,0,0,0,0,0,0.0275,0.0275,0.0281,0.0281,0.0281,0.0271,0.0271,0.0271,0.0248,0.0247,0.0246,0.0246,0.023,0.023,0.023,0,0,0,0,0,0,0,0,0,0,0,0,0,0.0274,0.0276,0.0281,0.0267,0.0266,0.0271,0.0271,0.0271,0.0248,0.0247,0.0246,0.0245,0.023,0.023,0.023,0.0249,0,0,0.023,0.0231,0,0,0,0,0,0,0,0,0.0274,0.0274,0.027,0.0268,0.0267,0.0259,0.0263,0.0263,0.0248,0.0256,0.0246,0.0245,0.0239,0.0238,0.024,0.0248,0.0247,0.0231,0.0231,0.0231,0.0231,0,0,0,0,0,0,0,0.0274,0.0274,0.0278,0.0269,0.0268,0.026,0.0259,0.0263,0.0253,0.0255,0.0253,0.0251,0.0238,0.024,0.0239,0.0247,0.0231,0.0231,0.0231,0.0231,0.0277,0.0278,0,0,0,0,0,0,0.0274,0.0275,0.0279,0.0278,0.0267,0.026,0.0259,0.0263,0.0253,0.0251,0.0251,0.025,0.024,0.0239,0.0239,0.0277,0.0231,0.0231,0.0231,0.0275,0.0277,0.0278,0,0,0,0,0,0,0.0275,0.0275,0.0279,0.0275,0.0274,0.0261,0.0266,0.0263,0.0264,0.025,0.0247,0.0254,0.0239,0.0238,0.025,0.0276,0.0231,0.0231,0.0274,0.0276,0.0277,0.0344,0,0,0,0,0,0,0.0275,0.0276,0.0284,0.0275,0.0275,0.029,0.0267,0.0264,0.0263,0.0261,0.0252,0.0249,0.0238,0.025,0.025,0.0275,0.0231,0.0273,0.0275,0.0277,0.034,0.0348,0.0354,0,0,0,0,0,0.0275,0.0294,0.0285,0.0285,0.0286,0.029,0.029,0.0278,0.0264,0.0274,0.0267,0.025,0.0263,0.0252,0.0251,0.0277,0.0272,0.0274,0.0277,0.0337,0.0346,0.0354,0,0,0,0,0,0,0.0294,0.0293,0.0283,0.03,0.0296,0.0286,0.0298,0.0283,0.0285,0.0283,0.0265,0.0264,0.0283,0.0272,0.0259,0.0296,0.0264,0.0267,0.031,0.0319,0.0325,0.0345,0.0231,0,0,0,0,0,0.0303,0.0316,0.0308,0.032,0.0324,0.031,0.0312,0.03,0.0297,0.0296,0.0292,0.0289,0.0295,0.0299,0.03,0.0324,0.033,0.0339,0.0346,0.0352,0.0367,0.0411,0.0424,0.0286,0.0286,0.0286,0,0,0.031,0.0312,0.0318,0.0325,0.0324,0.0346,0.031,0.0316,0.0335,0.0296,0.0327,0.0312,0.0305,0.033,0.0338,0.0324,0.0391,0.0355,0.036,0.0373,0.0415,0.0428,0.0441,0.0288,0.0288,0.0287,0,0,0.0341,0.0339,0.0365,0.0374,0.0376,0.037,0.0373,0.0369,0.0371,0.0391,0.0369,0.0373,0.0383,0.0386,0.0387,0.0434,0.0424,0.0429,0.0484,0.0526,0.0538,0.0548,0.0564,0.0576,0.0435,0.0435,0.0435,0,0.035,0.0382,0.0372,0.0406,0.042,0.0387,0.0419,0.0423,0.0421,0.0438,0.0411,0.0435,0.0416,0.0457,0.0464,0.0452,0.0465,0.0453,0.0536,0.0547,0.0557,0.057,0.0582,0.0438,0.0438,0.0438,0.0437,0,0.0402,0.0433,0.0453,0.0485,0.0498,0.0518,0.052,0.0534,0.0525,0.0529,0.0561,0.0536,0.0552,0.0541,0.0514,0.0572,0.0555,0.0538,0.0518,0.0575,0.0585,0.0596,0.0444,0.0442,0.0441,0.044,0,0,0.0412,0.0477,0.0483,0.0519,0.0542,0.0558,0.0599,0.063,0.0668,0.066,0.0714,0.0701,0.0679,0.0679,0.0643,0.0666,0.0725,0.0632,0.0633,0.0653,0.0809,0.0764,0.0772,0.0729,0.0732,0.0734,0.0785,0,0.0456,0.0535,0.0552,0.0623,0.0667,0.0667,0.0711,0.0735,0.0748,0.0793,0.0775,0.0808,0.0735,0.074,0.0753,0.0742,0.0761,0.0712,0.0747,0.0748,0.0706,0.0786,0.0741,0.0781,0.0796,0.0798,0.0799,0,0.0508,0.0553,0.0633,0.0708,0.0727,0.076,0.0824,0.086,0.091,0.0925,0.095,0.0936,0.0962,0.0889,0.0914,0.089,0.0855,0.0836,0.0838,0.0784,0.0726,0.0728,0.0801,0.0692,0.0816,0.0815,0.0813,0,0.0532,0.0616,0.068,0.0706,0.0779,0.0815,0.0847,0.0902,0.0949,0.1014,0.1062,0.1078,0.1109,0.108,0.1023,0.0983,0.1051,0.0992,0.0919,0.0914,0.0877,0.0865,0.0856,0.1017,0.1017,0.1016,0.1016,0,0.0587,0.0643,0.0697,0.0737,0.0815,0.085,0.0933,0.0973,0.1041,0.1128,0.1128,0.1209,0.1164,0.1185,0.1097,0.1058,0.1115,0.0953,0.094,0.0896,0.0885,0.0787,0.0726,0.1018,0.1018,0.1017,0.1017,0,0.0632,0.0664,0.0744,0.0812,0.0836,0.0893,0.098,0.1044,0.1108,0.1223,0.1254,0.1339,0.1388,0.132,0.13,0.1176,0.1058,0.1083,0.1019,0.0997,0.0793,0.0736,0.0736,0.07,0.1013,0.1012,0.1012,0,0.0669,0.0715,0.0788,0.0829,0.0866,0.0943,0.1,0.1068,0.1143,0.1313,0.1381,0.1478,0.1562,0.1511,0.1341,0.1207,0.1091,0.1033,0.0937,0.0802,0.073,0.0696,0.0663,0.0911,0.091,0.0909,0.0908,0,0.0737,0.0755,0.0809,0.0882,0.0943,0.1027,0.1115,0.1183,0.1292,0.1412,0.1589,0.1677,0.1652,0.1544,0.1349,0.1219,0.0944,0.1005,0.0903,0.0691,0.062,0.0571,0.0835,0.0899,0.0899,0.09,0.0901,0.0901,0.0774,0.0816,0.0866,0.0941,0.1012,0.1109,0.1195,0.1306,0.1452,0.1648,0.1723,0.1882,0.1672,0.1431,0.1257,0.0867,0.0908,0.0716,0.0672,0.066,0.059,0.0818,0.0838,0.0839,0.0839,0.084,0.084,0,0.081,0.0853,0.0922,0.101,0.1095,0.1127,0.1272,0.1379,0.157,0.1745,0.1902,0.1871,0.1605,0.1304,0.0792,0.0558,0.0483,0.0438,0.0377,0.037,0.0606,0.0562,0.0478,0.0478,0.0478,0.0478,0.0478,0.0478,0.0828,0.089,0.0922,0.1056,0.113,0.1263,0.1356,0.1528,0.1678,0.1878,0.1964,0.2027,0.173,0.0902,0.0371,0.0263,0.0138,0.0106,0.0081,0.021,0.0232,0.0253,0.0198,0.0039,0.0038,-0.0146,-0.0148,-0.015]}],[{"header":{"parameterUnit":"m.s-1","parameterCategory":2,"la1":30.2991,"la2":30.254,"lo1":-89.0895,"lo2":-89.0444,"dy":0.0017,"dx":0.0017,"nx":28,"ny":28,"refTime":"2025-02-05T09:00:00:Z","depth":"2","parameterNumber":2,"parameterNumberName":"U-component_of_CURRENTS"},"data":[0,0,0,0,0,0,0,0,0,0,0,0,0,0,0,0,0,0,0,0,0,0,0,0,0,0,0,0,0,0,0,0,0,0,0,0,0,0,0,0,0,0,0,0,0,0,0,0,0,0,0,0,0,0,0,0,0,0,0.1854,0.1855,0,0.1879,0.1879,0.1879,0.1849,0.1848,0.1848,0.1847,0.1883,0.1885,0.1886,0,0,0,0,0,0,0,0,0,0,0,0,0,0.1821,0.1821,0.1854,0.1855,0.1856,0.1879,0.1879,0.1879,0.1849,0.1848,0.1848,0.1847,0.1883,0.1885,0.1887,0,0,0,0,0,0,0,0,0,0,0,0,0,0.1835,0.1821,0.1854,0.1847,0.1847,0.1879,0.1879,0.1879,0.1849,0.1848,0.1847,0.1846,0.1882,0.1884,0.1887,0.1922,0,0,0.1894,0.1895,0,0,0,0,0,0,0,0,0.1834,0.1836,0.1847,0.1848,0.1848,0.1864,0.1881,0.1895,0.185,0.1844,0.1847,0.1846,0.1882,0.1884,0.1884,0.1924,0.1925,0.1894,0.1896,0.1897,0.1898,0,0,0,0,0,0,0,0.1833,0.1835,0.1859,0.1848,0.1849,0.1857,0.1857,0.1883,0.1865,0.1844,0.1843,0.1854,0.1881,0.1882,0.1885,0.1926,0.1894,0.1896,0.1898,0.1899,0.203,0.2032,0,0,0,0,0,0,0.1839,0.1834,0.1859,0.1861,0.1844,0.1858,0.1858,0.1856,0.1864,0.1866,0.1854,0.1852,0.1878,0.1882,0.1886,0.1952,0.1897,0.1899,0.19,0.2028,0.2031,0.2033,0,0,0,0,0,0,0.1838,0.184,0.1858,0.1852,0.1856,0.186,0.1858,0.1857,0.1873,0.1873,0.1873,0.1873,0.1878,0.1883,0.1922,0.1953,0.19,0.1902,0.2026,0.2029,0.2032,0.207,0,0,0,0,0,0,0.1836,0.1839,0.1857,0.1852,0.1856,0.1877,0.186,0.1859,0.1882,0.188,0.1889,0.189,0.1877,0.1918,0.1924,0.1955,0.1904,0.2023,0.2027,0.2031,0.2066,0.2074,0.208,0,0,0,0,0,0.1835,0.1849,0.1858,0.1862,0.1874,0.1878,0.188,0.1878,0.1885,0.1889,0.1904,0.1891,0.1947,0.1922,0.1928,0.196,0.2021,0.2026,0.2031,0.2063,0.2072,0.208,0,0,0,0,0,0,0.1851,0.1848,0.1857,0.1873,0.1881,0.1875,0.1888,0.1896,0.1913,0.192,0.1917,0.1919,0.1965,0.1967,0.1939,0.2012,0.1984,0.199,0.2006,0.2015,0.2022,0.2035,0.1906,0,0,0,0,0,0.1865,0.1863,0.1874,0.1886,0.1894,0.1902,0.1913,0.1914,0.1923,0.1929,0.1934,0.1956,0.1989,0.2003,0.2022,0.2066,0.2089,0.2094,0.2101,0.2107,0.2124,0.2188,0.2202,0.2048,0.2048,0.2048,0,0,0.1866,0.1875,0.187,0.1889,0.1895,0.1906,0.1903,0.1921,0.194,0.1935,0.1962,0.1983,0.2008,0.2048,0.2069,0.2052,0.2163,0.2113,0.2117,0.2132,0.2194,0.2209,0.2222,0.2051,0.2051,0.205,0,0,0.1868,0.1885,0.1886,0.1896,0.1921,0.1927,0.194,0.1949,0.1963,0.2001,0.2007,0.2048,0.2084,0.2103,0.2123,0.2191,0.22,0.2203,0.2249,0.231,0.2323,0.2334,0.2379,0.2394,0.2205,0.2205,0.2205,0,0.1877,0.1877,0.189,0.1903,0.1917,0.1939,0.1952,0.1974,0.1995,0.2018,0.2014,0.2104,0.2112,0.2187,0.2204,0.2206,0.2243,0.2207,0.2318,0.233,0.2342,0.2384,0.2401,0.2207,0.2207,0.2207,0.2206,0,0.1883,0.1884,0.1887,0.1904,0.1932,0.1938,0.1977,0.1996,0.2026,0.2055,0.2135,0.2167,0.222,0.2235,0.2241,0.2334,0.2335,0.2319,0.2291,0.2359,0.24,0.2416,0.2211,0.221,0.2209,0.2208,0,0,0.1883,0.1883,0.1889,0.189,0.193,0.1948,0.1987,0.2029,0.2067,0.212,0.2198,0.2256,0.2294,0.2323,0.2349,0.2405,0.2504,0.2404,0.2406,0.244,0.2647,0.2494,0.2496,0.2515,0.2519,0.2521,0.2641,0,0.1876,0.1881,0.1902,0.1914,0.1911,0.1948,0.1991,0.2047,0.2092,0.2171,0.2257,0.2336,0.2327,0.2374,0.2435,0.2492,0.2552,0.2474,0.2584,0.2587,0.2435,0.2511,0.2297,0.2372,0.2657,0.2659,0.2661,0,0.1883,0.1876,0.1885,0.1901,0.1914,0.1944,0.2012,0.2058,0.217,0.2221,0.2321,0.2389,0.2506,0.2492,0.2629,0.2586,0.2629,0.2664,0.2669,0.2526,0.2464,0.2353,0.2391,0.2689,0.2686,0.2684,0.2683,0,0.1868,0.187,0.1873,0.1878,0.1913,0.1941,0.1982,0.2071,0.2123,0.2269,0.2322,0.2473,0.2559,0.2649,0.2707,0.2688,0.2857,0.2826,0.2733,0.2722,0.2559,0.2527,0.2935,0.2935,0.2935,0.2935,0.2934,0,0.1847,0.1836,0.1862,0.1858,0.1886,0.1944,0.2003,0.2054,0.2175,0.226,0.2361,0.2467,0.2605,0.2704,0.276,0.2789,0.2892,0.2762,0.275,0.2563,0.2531,0.2817,0.2801,0.2939,0.2938,0.2937,0.2936,0,0.1816,0.182,0.1809,0.1849,0.1869,0.1902,0.1989,0.2037,0.2138,0.2256,0.2311,0.2489,0.2602,0.269,0.2845,0.2817,0.2879,0.2864,0.2621,0.2576,0.2698,0.2684,0.2781,0.2777,0.2773,0.277,0.2768,0,0.1789,0.1786,0.1813,0.1819,0.1831,0.1881,0.1927,0.2022,0.2085,0.2265,0.2342,0.248,0.2542,0.2677,0.2697,0.2731,0.2827,0.2535,0.2436,0.2707,0.2687,0.2678,0.2669,0.2253,0.2247,0.2241,0.2237,0,0.1742,0.1765,0.1774,0.1783,0.181,0.1843,0.1918,0.1944,0.2082,0.2156,0.2288,0.234,0.2445,0.2393,0.2408,0.2412,0.2501,0.242,0.2813,0.2292,0.2209,0.2189,0.2198,0.219,0.2194,0.2198,0.22,0.2202,0.172,0.1726,0.1751,0.1748,0.1776,0.1798,0.1799,0.1873,0.1934,0.2003,0.2155,0.2147,0.2183,0.2084,0.2047,0.2034,0.2207,0.2118,0.2136,0.216,0.2043,0.1955,0.1867,0.187,0.1873,0.1875,0.1877,0,0.1671,0.1699,0.1715,0.1705,0.1684,0.1746,0.1795,0.1744,0.1756,0.184,0.1882,0.1715,0.1659,0.1712,0.1603,0.1582,0.1587,0.1526,0.1532,0.158,0.1622,0.1479,0.1154,0.1152,0.1149,0.1147,0,0,0.1657,0.1627,0.1633,0.1579,0.1611,0.1601,0.1607,0.1534,0.1535,0.1457,0.1464,0.1567,0.1628,0.1367,0.1333,0.1228,0.1391,0.1171,0.1752,0.1806,0.1846,0.1965,0.1798,0,0,0,0,0]},{"header":{"parameterUnit":"m.s-1","parameterCategory":2,"la1":30.2991,"la2":30.254,"lo1":-89.0895,"lo2":-89.0444,"dy":0.0017,"dx":0.0017,"nx":28,"ny":28,"refTime":"2025-02-05T09:00:00:Z","depth":"2","parameterNumber":3,"parameterNumberName":"V-component_of_CURRENTS"},"data":[0,0,0,0,0,0,0,0,0,0,0,0,0,0,0,0,0,0,0,0,0,0,0,0,0,0,0,0,0,0,0,0,0,0,0,0,0,0,0,0,0,0,0,0,0,0,0,0,0,0,0,0,0,0,0,0,0,0,0.0012,0.0012,0,-0.0009,-0.0009,-0.0009,-0.0026,-0.0026,-0.0026,-0.0026,-0.0044,-0.0044,-0.0044,0,0,0,0,0,0,0,0,0,0,0,0,0,0.0016,0.0016,0.0012,0.0012,0.0011,-0.0009,-0.0009,-0.0009,-0.0026,-0.0026,-0.0026,-0.0026,-0.0043,-0.0044,-0.0044,0,0,0,0,0,0,0,0,0,0,0,0,0,0.0006,0.0016,0.0012,0.0001,0.0,-0.0009,-0.0009,-0.0009,-0.0026,-0.0026,-0.0026,-0.0026,-0.0043,-0.0044,-0.0044,-0.0045,0,0,-0.0046,-0.0046,0,0,0,0,0,0,0,0,0.0007,0.0006,0.0003,0.0002,0.0001,-0.0014,-0.0014,-0.0021,-0.0026,-0.0017,-0.0026,-0.0026,-0.0033,-0.0034,-0.0039,-0.0046,-0.0046,-0.0046,-0.0046,-0.0047,-0.0047,0,0,0,0,0,0,0,0.0008,0.0007,0.0003,0.0003,0.0001,-0.0009,-0.0011,-0.0015,-0.0024,-0.0018,-0.0019,-0.002,-0.0034,-0.0038,-0.0039,-0.0047,-0.0046,-0.0047,-0.0047,-0.0047,-0.0045,-0.0045,0,0,0,0,0,0,0.0013,0.0008,0.0004,0.0002,0.0004,-0.0009,-0.0011,-0.001,-0.0024,-0.0026,-0.0019,-0.002,-0.0037,-0.0039,-0.004,-0.0028,-0.0047,-0.0047,-0.0047,-0.0045,-0.0045,-0.0044,0,0,0,0,0,0,0.0013,0.0013,0.0004,0.0005,0.0003,-0.0009,-0.0008,-0.001,-0.0014,-0.0026,-0.0028,-0.002,-0.0037,-0.0039,-0.0041,-0.0029,-0.0047,-0.0048,-0.0046,-0.0045,-0.0045,-0.0011,0,0,0,0,0,0,0.0013,0.0013,0.0014,0.0005,0.0003,0.0008,-0.0008,-0.001,-0.0014,-0.0015,-0.0027,-0.0029,-0.0038,-0.004,-0.0042,-0.003,-0.0048,-0.0046,-0.0045,-0.0045,-0.0013,-0.001,-0.0007,0,0,0,0,0,0.0014,0.002,0.0015,0.0014,0.0006,0.0008,0.0007,-0.0003,-0.0014,-0.0009,-0.0021,-0.0029,-0.0037,-0.0041,-0.0042,-0.003,-0.0047,-0.0046,-0.0045,-0.0014,-0.001,-0.0007,0,0,0,0,0,0,0.0023,0.0019,0.0013,0.0017,0.0016,0.0006,0.0007,-0.0001,-0.0008,-0.0011,-0.0026,-0.0028,-0.0026,-0.0033,-0.0037,-0.0028,-0.0042,-0.0041,-0.0018,-0.0015,-0.0012,0.0,-0.0049,0,0,0,0,0,0.0026,0.003,0.0024,0.0029,0.0028,0.0017,0.0015,0.0009,0.0002,-0.0001,-0.0009,-0.0018,-0.0024,-0.0023,-0.003,-0.0024,-0.0026,-0.0017,-0.0014,-0.0011,-0.0003,0.0007,0.0012,-0.0042,-0.0042,-0.0042,0,0,0.0031,0.0029,0.0031,0.0031,0.0026,0.0036,0.0015,0.0017,0.0026,-0.0002,0.0007,-0.001,-0.0021,-0.0016,-0.0015,-0.0019,0.0002,-0.001,-0.0008,-0.0001,0.0009,0.0014,0.0019,-0.0041,-0.0041,-0.0041,0,0,0.0049,0.0041,0.0053,0.0055,0.0053,0.0048,0.0051,0.0044,0.0042,0.0044,0.0026,0.002,0.0012,0.001,0.0006,0.0023,0.0014,0.0018,0.0048,0.0058,0.0063,0.0067,0.0067,0.0071,0.0024,0.0024,0.0024,0,0.0055,0.0071,0.0058,0.0072,0.008,0.0058,0.0078,0.0072,0.0066,0.007,0.0053,0.0042,0.0028,0.0039,0.004,0.0031,0.0031,0.0035,0.0063,0.0067,0.0071,0.007,0.0074,0.0026,0.0026,0.0026,0.0026,0,0.0086,0.0098,0.0107,0.0119,0.0124,0.0136,0.013,0.0136,0.0125,0.0115,0.0118,0.0094,0.0091,0.0083,0.0064,0.0084,0.0072,0.0063,0.0056,0.0079,0.0075,0.0079,0.0029,0.0028,0.0027,0.0027,0,0,0.0101,0.0125,0.0128,0.0149,0.0152,0.0163,0.018,0.0192,0.0214,0.0186,0.0209,0.0179,0.0156,0.0151,0.0127,0.0131,0.0146,0.0109,0.0108,0.0112,0.0163,0.0118,0.0118,0.0141,0.0142,0.0143,0.0148,0,0.0132,0.0175,0.0176,0.0218,0.0242,0.0237,0.026,0.0263,0.0262,0.0276,0.0237,0.0243,0.0185,0.019,0.0177,0.0162,0.0157,0.0145,0.0137,0.0137,0.0098,0.0121,0.0128,0.013,0.0151,0.0152,0.0152,0,0.0163,0.0192,0.024,0.0284,0.0294,0.0315,0.0358,0.0375,0.0378,0.0378,0.0362,0.0329,0.0317,0.0269,0.0242,0.0237,0.02,0.0179,0.0179,0.013,0.01,0.0112,0.0136,0.0158,0.0157,0.0157,0.0157,0,0.0187,0.0236,0.028,0.0292,0.0334,0.0363,0.0386,0.0406,0.044,0.0446,0.0472,0.0428,0.0433,0.0376,0.0302,0.0283,0.0274,0.0246,0.0168,0.0164,0.0165,0.016,0.0229,0.0229,0.0229,0.0229,0.0229,0,0.0221,0.0257,0.0299,0.0323,0.0391,0.0401,0.0469,0.0489,0.0527,0.0581,0.0524,0.0567,0.0463,0.0432,0.0344,0.0266,0.0304,0.018,0.0167,0.0175,0.017,0.019,0.0185,0.0229,0.0229,0.0229,0.0229,0,0.0244,0.0265,0.0322,0.0378,0.0404,0.045,0.0532,0.0585,0.0613,0.0688,0.0696,0.0687,0.0649,0.0528,0.0453,0.0341,0.0262,0.0221,0.0225,0.0212,0.0133,0.013,0.0143,0.0142,0.014,0.0139,0.0139,0,0.0261,0.0292,0.0363,0.041,0.0441,0.0515,0.0575,0.0623,0.0685,0.0774,0.0818,0.0804,0.0791,0.0641,0.0461,0.0292,0.027,0.0178,0.0133,0.014,0.0127,0.0126,0.0124,0.015,0.015,0.0149,0.0149,0,0.0302,0.032,0.0368,0.0462,0.0532,0.0621,0.0709,0.0772,0.0842,0.0911,0.1003,0.1002,0.0851,0.0687,0.0435,0.0315,0.0197,0.0159,0.0197,0.0158,0.0144,0.0131,0.0131,0.0144,0.0144,0.0145,0.0145,0.0145,0.0331,0.0372,0.0434,0.0524,0.0609,0.0723,0.0802,0.0898,0.1009,0.1105,0.1113,0.1102,0.0909,0.0579,0.0388,0.0171,0.0175,0.0084,0.0088,0.0092,0.0079,0.0062,0.0044,0.0044,0.0044,0.0044,0.0044,0,0.0373,0.0421,0.0501,0.0611,0.0706,0.0747,0.0889,0.0969,0.1101,0.1159,0.1208,0.1012,0.0827,0.0606,0.0287,0.009,0.0081,0.0024,0.0065,0.007,0.0075,0.0062,0.0023,0.0022,0.0022,0.0021,0,0,0.04,0.0479,0.0516,0.0674,0.0751,0.0881,0.0961,0.1083,0.1148,0.1198,0.1173,0.1127,0.0867,0.0633,0.0383,0.021,0.018,0.0164,0.0197,0.028,0.0287,0.0121,0.0108,0,0,0,0,0]}],[{"header":{"parameterUnit":"m.s-1","parameterCategory":2,"la1":30.2991,"la2":30.254,"lo1":-89.0895,"lo2":-89.0444,"dy":0.0017,"dx":0.0017,"nx":28,"ny":28,"refTime":"2025-02-05T09:00:00:Z","depth":"4","parameterNumber":2,"parameterNumberName":"U-component_of_CURRENTS"},"data":[0,0,0,0,0,0,0,0,0,0,0,0,0,0,0,0,0,0,0,0,0,0,0,0,0,0,0,0,0,0,0,0,0,0,0,0,0,0,0,0,0,0,0,0,0,0,0,0,0,0,0,0,0,0,0,0,0,0,0.1046,0.1046,0,0.106,0.106,0.106,0.1073,0.1074,0.1074,0.1074,0.1096,0.1096,0.1097,0,0,0,0,0,0,0,0,0,0,0,0,0,0.1003,0.1003,0.1046,0.1046,0.1047,0.106,0.106,0.106,0.1073,0.1074,0.1074,0.1074,0.1096,0.1096,0.1097,0,0,0,0,0,0,0,0,0,0,0,0,0,0.1017,0.1004,0.1046,0.1057,0.1058,0.1061,0.106,0.106,0.1073,0.1074,0.1074,0.1075,0.1096,0.1096,0.1097,0.1087,0,0,0.1098,0.1098,0,0,0,0,0,0,0,0,0.1017,0.1019,0.1055,0.1056,0.1058,0.1068,0.1053,0.1071,0.1073,0.1065,0.1074,0.1075,0.1089,0.109,0.1087,0.1088,0.1089,0.1098,0.1098,0.1098,0.1098,0,0,0,0,0,0,0,0.1016,0.1018,0.1049,0.1055,0.1057,0.1052,0.1055,0.1056,0.1071,0.1065,0.1067,0.1073,0.1089,0.1087,0.1088,0.1089,0.1098,0.1098,0.1098,0.1098,0.1158,0.116,0,0,0,0,0,0,0.102,0.1017,0.1049,0.105,0.1041,0.1053,0.1055,0.1062,0.1071,0.1074,0.1072,0.1073,0.1086,0.1087,0.1089,0.1133,0.1098,0.1098,0.1098,0.1157,0.1159,0.116,0,0,0,0,0,0,0.1019,0.1023,0.1048,0.1036,0.1039,0.1053,0.106,0.1062,0.1084,0.1077,0.1079,0.1095,0.1086,0.1088,0.1113,0.1132,0.1098,0.1099,0.1155,0.1157,0.1159,0.1186,0,0,0,0,0,0,0.1018,0.1022,0.1036,0.1036,0.104,0.106,0.106,0.1062,0.1086,0.1088,0.1097,0.1098,0.1087,0.1112,0.1113,0.1132,0.1099,0.1153,0.1156,0.1159,0.1184,0.1189,0.1194,0,0,0,0,0,0.1016,0.1023,0.1036,0.1041,0.1056,0.1061,0.1062,0.1072,0.1087,0.1094,0.1109,0.1099,0.113,0.1114,0.1114,0.1133,0.1152,0.1155,0.1159,0.1182,0.1188,0.1194,0,0,0,0,0,0,0.1011,0.1025,0.104,0.1052,0.1065,0.1064,0.1076,0.1087,0.1104,0.1115,0.1111,0.1113,0.1148,0.1139,0.1121,0.1161,0.1142,0.1145,0.1159,0.1165,0.117,0.1182,0.1099,0,0,0,0,0,0.1018,0.1027,0.1043,0.1055,0.1066,0.1079,0.1088,0.1097,0.1108,0.1117,0.1128,0.1142,0.1157,0.116,0.1173,0.1186,0.1199,0.1202,0.1207,0.1211,0.1224,0.126,0.1269,0.117,0.117,0.117,0,0,0.1022,0.103,0.1038,0.1055,0.1068,0.1078,0.1086,0.1106,0.1119,0.1117,0.1148,0.1166,0.1169,0.119,0.1204,0.1185,0.1248,0.1215,0.1219,0.1229,0.1264,0.1273,0.1282,0.1173,0.1172,0.1172,0,0,0.102,0.1043,0.105,0.106,0.1085,0.1092,0.1106,0.1126,0.1146,0.1172,0.1184,0.1217,0.1228,0.1237,0.1241,0.1283,0.1283,0.1289,0.131,0.1344,0.1353,0.136,0.1392,0.1402,0.1279,0.1279,0.1279,0,0.1031,0.1033,0.1054,0.106,0.1071,0.1103,0.1113,0.1133,0.116,0.1181,0.1188,0.1245,0.125,0.128,0.1297,0.1294,0.1314,0.1281,0.135,0.1358,0.1365,0.1396,0.1406,0.1281,0.128,0.128,0.128,0,0.1025,0.1035,0.1041,0.106,0.1078,0.109,0.1122,0.1154,0.1187,0.1206,0.1264,0.1285,0.1314,0.1326,0.1322,0.1377,0.1376,0.136,0.1331,0.1376,0.1406,0.1417,0.1283,0.1282,0.1282,0.1282,0,0,0.1025,0.1036,0.104,0.1044,0.1079,0.1088,0.1129,0.1166,0.1197,0.1244,0.1282,0.1331,0.1358,0.1367,0.138,0.1413,0.148,0.141,0.1411,0.1436,0.1563,0.1424,0.1422,0.1476,0.1478,0.148,0.1564,0,0.1018,0.1018,0.1033,0.1044,0.1048,0.109,0.1122,0.1166,0.1209,0.1252,0.1304,0.135,0.1367,0.1392,0.143,0.1478,0.151,0.146,0.1521,0.1523,0.1389,0.143,0.1486,0.1572,0.1574,0.1576,0.1577,0,0.1005,0.1004,0.1012,0.103,0.1041,0.1061,0.1121,0.1154,0.1225,0.1264,0.1326,0.1364,0.1443,0.1439,0.155,0.152,0.1548,0.1578,0.1581,0.145,0.1404,0.1518,0.1596,0.1595,0.1593,0.1592,0.1591,0,0.0973,0.0987,0.0991,0.0996,0.103,0.1057,0.1092,0.1162,0.1204,0.1282,0.1322,0.1407,0.1462,0.1528,0.1597,0.1584,0.1703,0.1682,0.1584,0.1575,0.1663,0.1654,0.1747,0.1747,0.1746,0.1746,0.1746,0,0.0939,0.0939,0.0978,0.0973,0.0994,0.1038,0.1083,0.113,0.1212,0.1259,0.1332,0.138,0.1491,0.1562,0.1613,0.1633,0.1717,0.16,0.1587,0.1673,0.1664,0.167,0.166,0.1749,0.1749,0.1748,0.1747,0,0.0885,0.0911,0.0911,0.0954,0.0974,0.0993,0.1073,0.1102,0.1194,0.1259,0.1292,0.1393,0.1485,0.1571,0.1676,0.1637,0.1679,0.1656,0.1755,0.1744,0.1527,0.1518,0.1561,0.1557,0.1553,0.155,0.1548,0,0.085,0.0846,0.089,0.09,0.0918,0.0961,0.0992,0.1086,0.1129,0.1256,0.1281,0.1387,0.1445,0.1499,0.1581,0.165,0.1627,0.1621,0.1564,0.1525,0.1509,0.1506,0.1501,0.1542,0.1541,0.154,0.1539,0,0.0777,0.0807,0.0809,0.0837,0.0865,0.0883,0.0943,0.0972,0.1086,0.1183,0.1249,0.1287,0.1364,0.1434,0.1482,0.1528,0.1613,0.1584,0.1591,0.1538,0.1503,0.149,0.149,0.1527,0.1529,0.153,0.1531,0,0.0735,0.072,0.0744,0.076,0.0792,0.0793,0.0832,0.0893,0.0954,0.1118,0.1136,0.1251,0.1358,0.137,0.1427,0.1446,0.1425,0.1368,0.1386,0.1401,0.1303,0.1233,0.1171,0,0,0,0,0,0.0689,0.0663,0.0665,0.067,0.0702,0.0722,0.0794,0.0846,0.0972,0.0994,0.1071,0.1143,0.1198,0.1255,0.1247,0.1334,0.1416,0.1312,0.1356,0.1459,0.1473,0.1369,0,0,0,0,0,0,0.0655,0.0647,0.0634,0.0599,0.0595,0.0612,0.0653,0.0731,0.0766,0.0907,0.0962,0.1055,0.1147,0.1208,0.1223,0.1239,0.1235,0.1393,0.1389,0.1451,0.1463,0.1475,0.1374,0,0,0,0,0]},{"header":{"parameterUnit":"m.s-1","parameterCategory":2,"la1":30.2991,"la2":30.254,"lo1":-89.0895,"lo2":-89.0444,"dy":0.0017,"dx":0.0017,"nx":28,"ny":28,"refTime":"2025-02-05T09:00:00:Z","depth":"4","parameterNumber":3,"parameterNumberName":"V-component_of_CURRENTS"},"data":[0,0,0,0,0,0,0,0,0,0,0,0,0,0,0,0,0,0,0,0,0,0,0,0,0,0,0,0,0,0,0,0,0,0,0,0,0,0,0,0,0,0,0,0,0,0,0,0,0,0,0,0,0,0,0,0,0,0,0.003,0.003,0,0.0016,0.0016,0.0016,0.001,0.001,0.001,0.001,-0.0001,-0.0001,-0.0001,0,0,0,0,0,0,0,0,0,0,0,0,0,0.0035,0.0035,0.003,0.003,0.0029,0.0016,0.0016,0.0016,0.001,0.001,0.001,0.001,-0.0001,-0.0001,-0.0001,0,0,0,0,0,0,0,0,0,0,0,0,0,0.0028,0.0035,0.003,0.0024,0.0024,0.0016,0.0016,0.0016,0.001,0.001,0.001,0.001,-0.0,-0.0001,-0.0001,-0.0003,0,0,-0.0002,-0.0003,0,0,0,0,0,0,0,0,0.0029,0.0028,0.0025,0.0025,0.0024,0.0014,0.0014,0.001,0.001,0.0015,0.001,0.001,0.0005,0.0004,0.0002,-0.0004,-0.0004,-0.0002,-0.0003,-0.0003,-0.0003,0,0,0,0,0,0,0,0.0029,0.0029,0.0025,0.0025,0.0024,0.0017,0.0017,0.0013,0.001,0.0015,0.0014,0.0012,0.0004,0.0002,0.0001,-0.0004,-0.0002,-0.0003,-0.0003,-0.0003,-0.0012,-0.0012,0,0,0,0,0,0,0.0031,0.0029,0.0025,0.0024,0.0026,0.0017,0.0017,0.0018,0.001,0.0009,0.0012,0.0012,0.0003,0.0002,0.0001,0.001,-0.0003,-0.0003,-0.0003,-0.0012,-0.0012,-0.0012,0,0,0,0,0,0,0.0031,0.0031,0.0026,0.0026,0.0025,0.0018,0.0019,0.0017,0.0016,0.0008,0.0007,0.0012,0.0003,0.0001,-0.0001,0.0009,-0.0003,-0.0004,-0.0012,-0.0012,-0.0012,0.002,0,0,0,0,0,0,0.0032,0.0031,0.0033,0.0026,0.0025,0.0028,0.0019,0.0017,0.0015,0.0014,0.0008,0.0007,0.0002,-0.0001,-0.0002,0.0008,-0.0004,-0.0012,-0.0012,-0.0012,0.0019,0.0021,0.0023,0,0,0,0,0,0.0032,0.0038,0.0033,0.0033,0.0028,0.0029,0.0028,0.0022,0.0015,0.002,0.0011,0.0007,-0.0001,-0.0001,-0.0002,0.0008,-0.0012,-0.0012,-0.0012,0.0018,0.002,0.0022,0,0,0,0,0,0,0.0041,0.0037,0.0032,0.0036,0.0035,0.0028,0.0029,0.0023,0.0019,0.0016,0.0008,0.0006,0.0006,0.0,0.0001,0.0003,-0.0007,-0.0008,0.0016,0.0018,0.002,0.003,-0.0004,0,0,0,0,0,0.0043,0.0046,0.0041,0.0045,0.0044,0.0035,0.0034,0.003,0.0025,0.0023,0.0019,0.0011,0.0005,0.0006,-0.0001,0.0003,-0.0012,0.0007,0.0009,0.0011,0.0018,-0.0002,-0.0001,-0.0012,-0.0012,-0.0012,0,0,0.0046,0.0045,0.0046,0.0047,0.0043,0.005,0.0035,0.0035,0.0044,0.0022,0.0032,0.0017,0.0006,0.0009,0.0009,0.0007,0.0005,0.0011,0.0013,0.0019,-0.0002,-0.0001,-0.0,-0.0012,-0.0012,-0.0012,0,0,0.0059,0.0054,0.0063,0.0066,0.0064,0.0059,0.006,0.0056,0.0056,0.0059,0.0043,0.0036,0.0031,0.0027,0.0023,0.0031,0.0013,0.0027,0.0051,0.0032,0.0033,0.0033,0.0013,0.0011,0.0032,0.0032,0.0032,0,0.0062,0.0076,0.0065,0.0079,0.0086,0.0066,0.0082,0.0078,0.0075,0.0078,0.0067,0.0052,0.0042,0.0044,0.0046,0.0037,0.002,0.0045,0.0035,0.0035,0.0035,0.0014,0.0012,0.0034,0.0034,0.0033,0.0033,0,0.0086,0.0098,0.0104,0.0115,0.012,0.013,0.0126,0.0131,0.0123,0.0116,0.0113,0.0092,0.0087,0.0078,0.0066,0.0064,0.0048,0.0037,0.0031,0.0039,0.0015,0.0013,0.0036,0.0035,0.0035,0.0035,0,0,0.0094,0.0117,0.012,0.0139,0.0144,0.0154,0.0167,0.0176,0.0187,0.0169,0.018,0.0159,0.0138,0.0131,0.011,0.0092,0.0074,0.0068,0.0066,0.0052,0.0027,0.0018,0.0014,0.0058,0.0058,0.0058,0.001,0,0.0118,0.0153,0.0158,0.0195,0.0214,0.0213,0.0232,0.0235,0.0227,0.023,0.0198,0.0195,0.016,0.0158,0.0133,0.0088,0.0069,0.0088,0.0019,0.0017,0.0012,0.0011,0.0057,0.0008,0.0007,0.0007,0.0006,0,0.0142,0.0165,0.0206,0.0247,0.0256,0.0275,0.0304,0.032,0.0312,0.0304,0.0284,0.0253,0.0226,0.0194,0.0123,0.0135,0.0087,0.0048,0.0045,0.0026,0.0003,-0.0001,0.0001,0.0001,0.0002,0.0002,0.0002,0,0.0156,0.0201,0.0237,0.0251,0.0289,0.0315,0.0336,0.0343,0.0366,0.0351,0.0353,0.0304,0.0285,0.0217,0.013,0.0128,0.0044,0.0032,-0.0021,-0.0023,-0.0014,-0.0014,-0.0014,-0.0014,-0.0014,-0.0014,-0.0014,0,0.0181,0.0212,0.0252,0.0273,0.0329,0.0345,0.0395,0.0406,0.0422,0.0445,0.0394,0.0389,0.0289,0.0227,0.0145,0.0051,0.0054,-0.0015,-0.0034,-0.0,0.0002,-0.0016,-0.0016,-0.0016,-0.0016,-0.0015,-0.0015,0,0.0192,0.0214,0.0262,0.0313,0.0338,0.0378,0.0445,0.0479,0.0484,0.0512,0.0512,0.0455,0.0371,0.0265,0.0149,0.0077,-0.0015,-0.0048,-0.0005,-0.0021,-0.0071,-0.0069,-0.0105,-0.0106,-0.0106,-0.0107,-0.0107,0,0.0199,0.0225,0.0292,0.0328,0.0357,0.0421,0.047,0.0507,0.0543,0.0549,0.0565,0.0496,0.0441,0.0272,0.0153,-0.0003,-0.0026,-0.0077,-0.0073,-0.0065,-0.008,-0.0076,-0.0073,-0.0108,-0.0108,-0.0108,-0.0108,0,0.0217,0.0238,0.0279,0.0354,0.0414,0.0484,0.0554,0.0587,0.0626,0.0628,0.0607,0.0518,0.042,0.0279,0.0154,0.0042,-0.0047,-0.0083,-0.0083,-0.008,-0.0069,-0.0082,-0.0079,-0.011,-0.011,-0.011,-0.011,0,0.023,0.0259,0.0311,0.0383,0.0455,0.0529,0.0566,0.0614,0.0652,0.0661,0.0648,0.0539,0.0475,0.0302,0.0187,0.0074,0.0047,0.0007,0.0002,0.0003,0.0043,0.0073,0.0062,0,0,0,0,0,0.0242,0.028,0.0342,0.0417,0.0486,0.0534,0.0616,0.0647,0.0683,0.0678,0.0669,0.0578,0.0405,0.0327,0.0215,0.017,0.0021,0.0033,-0.0028,-0.0121,-0.0119,-0.0092,0,0,0,0,0,0,0.0251,0.0303,0.034,0.0432,0.0488,0.0572,0.0627,0.0655,0.0655,0.0664,0.0577,0.0537,0.0372,0.0466,0.0206,0.0172,0.0115,-0.0045,-0.0048,-0.0123,-0.0121,-0.0119,-0.009,0,0,0,0,0]}]]